Theta_e
301 299 300 304 303 304 304 306 305 303 303 303 301 302 305 305 302 300 302 304 305 307 310 313 313 312 310 309 307 306 305 304 303 302 303 303 303 302 303 303 303 303 303 303
298 298 299 300 300 302 303 302 303 302 301 301 300 300 301 302 301 303 303 303 304 305 307 308 310 310 310 309 307 306 305 304 304 303 303 303 303 302 302 303 303 303 302 302
296 299 298 298 299 300 299 300 301 302 302 300 300 302 302 303 302 303 304 304 305 305 305 307 307 308 309 308 307 305 305 304 304 303 302 303 302 301 302 303 303 303 302 302
297 298 300 299 299 299 299 298 301 302 302 300 301 301 302 303 303 303 304 306 307 306 305 305 306 307 307 308 307 306 305 304 304 303 302 303 303 303 302 303 303 302 302 301
299 297 298 299 299 298 299 300 301 301 300 300 301 301 300 302 304 304 305 305 306 307 308 307 306 306 306 307 306 305 304 304 304 303 302 302 303 302 301 302 302 302 301 301
298 297 297 298 297 298 298 300 301 299 298 297 299 300 304 302 304 306 307 307 308 308 307 306 306 305 305 305 305 305 304 304 304 303 303 302 303 302 301 301 302 302 302 301
298 297 297 297 297 298 298 298 299 297 295 301 299 299 302 302 303 304 305 306 308 308 308 307 307 305 305 305 305 304 304 304 304 304 303 303 302 302 302 301 301 301 301 301
297 298 296 295 297 299 298 298 300 298 302 303 300 302 303 302 302 304 305 306 308 307 307 307 307 306 305 305 305 305 304 304 304 303 303 303 302 302 302 302 301 301 301 301
297 299 296 296 296 297 298 300 300 301 294 300 303 302 301 303 303 302 302 303 305 306 306 306 306 306 305 305 305 305 305 304 304 303 303 303 302 302 302 301 301 300 300 300
299 301 296 295 296 296 297 297 300 297 297 300 302 302 303 304 306 304 302 301 305 305 306 306 305 305 305 304 305 305 305 304 304 303 303 303 302 302 301 301 301 300 300 300
297 301 296 295 294 297 296 297 296 297 300 301 303 303 301 302 302 305 302 302 304 305 305 305 305 305 305 305 304 304 304 304 304 303 303 303 302 302 301 301 301 300 300 300
301 303 297 296 294 294 295 297 298 299 298 301 304 304 304 302 302 302 304 306 307 307 306 306 305 304 304 305 305 305 305 304 304 304 303 303 302 302 301 301 301 300 300 300
301 304 302 302 297 292 292 295 298 299 299 299 302 304 300 301 304 304 304 306 307 307 306 306 306 305 305 305 305 305 305 305 304 304 303 303 303 302 302 302 301 300 300 299
304 304 306 309 305 298 297 293 297 299 299 303 303 304 305 304 303 303 304 304 305 307 307 307 306 305 305 305 306 306 306 306 305 305 304 304 304 303 302 302 301 300 300 299
306 307 306 306 304 298 301 297 296 299 301 300 304 302 302 301 303 302 302 303 304 306 307 307 308 308 307 306 306 306 306 306 306 305 304 305 305 303 302 302 301 300 299 299
300 306 305 309 307 308 306 301 300 299 299 300 300 300 299 299 300 300 301 301 299 299 299 301 303 306 306 306 306 305 305 305 304 304 305 305 305 303 302 301 300 300 299 298
300 303 306 308 306 306 304 305 303 299 297 299 299 300 300 300 300 297 295 294 295 296 298 298 298 300 302 304 305 305 306 306 305 304 304 304 305 304 303 301 300 300 299 298
300 301 303 306 304 308 306 304 305 305 306 303 303 304 295 293 293 291 290 291 291 293 294 296 297 298 299 301 303 304 304 305 304 305 303 303 304 303 303 301 300 299 299 298
299 300 302 304 305 305 304 299 299 302 298 291 292 291 291 290 294 291 289 288 289 290 292 293 294 296 298 298 300 302 303 304 304 303 304 304 304 304 303 301 301 300 298 298
298 300 300 302 305 304 299 293 292 293 299 289 289 289 288 290 296 290 288 288 288 289 290 292 294 295 296 297 298 300 302 303 304 304 305 304 304 304 303 302 301 300 298 298
294 299 301 302 302 297 292 291 290 301 294 288 287 287 287 288 287 287 288 288 287 287 289 291 292 293 293 294 295 297 298 299 300 302 303 303 303 303 303 301 300 299 298 298
289 292 294 294 298 298 290 290 293 290 288 287 286 286 286 285 286 286 286 286 287 288 288 288 291 292 293 293 293 294 294 295 296 297 299 300 301 302 301 300 299 298 298 298
291 290 290 291 292 289 288 288 287 288 288 286 285 283 282 281 282 282 283 283 283 283 285 286 287 289 291 293 292 292 293 293 294 296 296 297 299 300 300 299 298 297 297 298
291 291 290 287 290 288 287 285 284 284 283 282 281 281 280 279 279 280 280 281 281 281 281 283 284 287 289 291 291 292 292 293 294 294 295 295 296 297 298 298 297 298 298 298
287 288 286 289 288 286 284 282 280 280 280 279 278 277 277 276 277 277 277 278 279 280 279 279 280 283 285 286 289 289 292 292 293 294 294 294 294 295 296 296 297 298 298 299
282 282 287 287 280 282 281 278 278 277 276 277 277 277 275 274 274 274 275 276 276 277 277 277 278 279 282 284 285 287 290 291 292 294 294 293 293 294 295 296 296 297 297 297
Wind_Speed
3 4 9 21 6 2 1 4 5 3 3 5 9 14 25 12 13 18 30 34 38 40 40 41 42 42 43 41 39 40 39 37 34 34 34 31 28 22 17 14 13 11 11 11
1 10 11 1 6 7 6 5 8 6 2 5 9 17 21 14 12 29 31 34 41 41 43 35 42 43 45 44 43 42 42 40 38 37 34 32 28 23 18 17 15 12 11 11
9 5 3 9 5 6 6 8 4 6 2 5 7 13 10 5 9 23 30 37 36 38 39 44 41 42 45 47 46 45 44 43 40 38 35 34 30 26 24 22 17 12 11 12
8 5 6 5 6 8 6 6 4 2 2 5 2 9 8 7 11 7 18 25 28 33 35 37 39 46 45 47 45 45 45 44 41 39 39 37 36 32 26 20 16 14 12 11
7 8 5 5 7 9 5 2 3 2 1 5 2 3 7 3 9 10 9 12 20 29 29 30 32 39 44 44 47 47 45 44 42 41 40 39 38 32 25 23 20 17 13 11
4 1 4 6 2 2 7 6 6 4 2 3 8 7 15 6 7 3 3 6 6 8 15 20 23 28 39 43 44 45 46 45 43 41 41 40 39 34 31 27 24 20 15 13
2 5 3 4 5 3 3 7 1 3 2 7 0 4 9 10 12 6 7 13 13 9 10 14 21 27 34 43 44 45 45 46 45 42 41 40 38 36 34 30 26 23 18 15
7 5 11 7 7 8 7 7 6 8 5 4 3 8 7 9 8 12 14 22 21 10 8 11 15 24 31 36 41 43 43 44 45 42 41 38 37 37 35 32 29 25 21 18
6 6 1 2 2 4 7 6 2 6 3 3 5 8 9 14 12 6 10 8 9 7 7 8 11 17 25 31 35 39 41 42 41 39 38 39 38 38 36 33 30 27 24 20
6 1 1 1 0 2 4 4 3 2 3 5 5 6 7 8 8 5 8 8 12 9 9 9 10 13 17 24 29 33 37 37 37 37 37 36 36 37 35 34 32 29 26 23
3 3 1 2 8 11 4 4 1 3 4 5 2 6 7 9 7 8 7 7 10 9 10 9 10 12 14 20 25 29 33 35 36 35 35 35 35 36 35 35 32 31 28 25
6 3 5 8 2 2 2 5 7 5 6 4 2 9 3 6 6 5 3 5 5 8 11 11 11 11 15 18 21 25 27 30 31 32 32 32 32 33 36 35 34 32 30 26
7 2 1 2 1 3 4 6 5 2 2 8 7 7 1 3 1 3 5 8 9 7 4 7 10 13 14 19 23 25 27 28 28 29 29 30 31 34 36 36 34 33 30 27
12 7 11 11 7 4 5 6 8 3 2 12 11 11 1 2 3 3 2 8 15 9 7 6 9 12 14 17 23 26 28 29 29 29 30 31 32 34 35 34 35 34 31 29
5 7 14 21 10 3 5 5 10 13 24 8 25 16 7 8 0 1 3 13 11 10 10 11 13 14 17 21 24 28 31 31 31 32 33 30 30 33 34 35 35 33 32 29
3 5 8 13 20 23 16 12 12 22 25 19 29 21 9 7 10 6 13 18 19 20 20 22 25 28 30 27 28 31 34 37 38 36 34 31 30 33 35 35 35 34 33 31
4 6 9 20 15 12 11 22 22 6 8 14 16 22 6 11 7 12 19 20 22 27 29 25 20 20 24 27 29 33 35 38 43 45 41 36 33 34 35 36 36 36 35 32
5 1 4 7 5 20 7 12 21 24 25 14 17 17 10 8 6 15 24 23 24 26 27 28 29 27 21 22 27 29 30 32 36 42 45 42 37 36 35 37 37 37 35 33
14 8 4 4 6 3 6 5 4 6 4 10 7 11 11 18 4 8 28 26 24 25 25 25 26 26 23 20 19 24 29 32 33 36 41 45 42 39 37 39 39 38 36 34
12 14 9 4 4 6 3 5 7 4 4 9 10 11 15 16 3 4 29 27 26 26 29 30 28 26 24 23 23 22 23 25 33 37 37 42 46 42 39 40 39 37 36 33
4 4 13 13 9 1 12 10 8 4 3 5 6 6 10 5 2 14 23 27 27 28 29 30 31 30 30 28 27 23 22 20 21 26 32 37 42 39 39 38 37 36 34 33
1 3 4 5 4 2 17 5 5 5 5 3 3 4 6 6 11 16 22 25 28 32 33 31 30 30 30 30 28 26 23 20 18 19 24 30 34 37 38 37 36 35 35 34
3 2 1 3 2 1 10 13 11 7 3 2 6 10 12 13 12 16 22 25 27 28 31 31 32 30 28 27 28 28 28 24 18 15 14 21 26 32 35 36 36 36 36 35
3 3 2 4 3 4 6 7 5 4 3 5 7 12 13 15 16 16 17 22 25 28 31 32 33 31 30 27 26 26 27 25 20 15 11 14 22 28 32 34 36 37 38 37
4 4 4 3 5 7 7 5 1 2 4 9 9 10 12 14 17 15 17 20 24 28 30 31 29 30 31 30 26 26 26 25 24 14 12 10 15 23 29 33 35 37 35 32
2 2 3 3 5 4 5 2 3 3 6 10 15 19 14 14 14 16 18 20 24 27 30 29 29 30 29 29 26 26 24 25 24 20 14 13 12 15 22 29 34 36 35 32
Wind_Direction
191 160 202 217 221 295 287 225 249 274 208 205 233 250 269 254 261 260 259 260 254 247 245 239 235 231 229 226 224 220 214 212 212 210 210 212 216 217 220 224 235 246 255 260
84 236 223 196 202 227 259 272 264 269 178 197 274 259 263 256 235 244 244 246 248 251 244 238 231 229 227 225 223 220 217 213 215 215 215 216 217 219 223 227 232 243 253 259
186 201 131 189 195 188 222 221 236 246 297 228 304 278 263 256 241 248 249 246 249 249 247 239 228 226 224 223 222 219 218 215 217 218 215 217 215 219 222 225 229 240 251 261
234 231 177 166 203 168 245 208 212 242 24 255 7 286 284 270 261 265 265 253 253 250 247 244 237 226 222 221 221 221 219 217 218 220 218 219 219 219 224 229 228 238 249 262
235 172 174 175 195 164 225 92 123 83 133 345 197 280 257 251 280 259 265 259 255 249 244 238 236 229 223 219 219 219 218 217 219 221 222 222 222 222 227 229 229 235 249 263
243 242 191 200 98 132 143 80 47 55 82 293 184 179 266 215 228 256 274 277 308 257 238 235 236 231 222 219 219 218 217 217 219 222 223 223 224 222 226 229 230 235 247 260
171 210 179 153 97 28 110 106 315 347 4 233 74 195 273 287 264 242 269 264 314 287 242 229 223 218 217 216 216 215 217 217 219 222 223 225 225 225 230 234 236 238 247 261
162 282 165 181 195 173 195 170 164 199 201 248 131 237 250 243 285 275 274 276 282 264 244 236 229 220 219 217 216 216 216 217 219 221 223 226 228 228 231 235 237 241 248 259
155 266 94 44 152 141 181 213 174 103 63 36 222 280 287 262 266 268 265 283 266 262 250 240 233 227 223 218 218 217 217 218 220 222 223 226 228 229 232 235 239 241 246 255
212 85 20 118 104 71 155 170 97 347 170 236 264 266 233 289 267 284 260 258 264 254 249 249 236 232 229 225 222 219 220 222 223 223 226 230 232 232 234 236 240 243 246 253
131 130 9 71 211 178 153 190 175 138 172 178 254 256 217 239 247 260 281 288 276 274 263 260 251 239 227 221 220 219 220 222 225 227 230 232 233 234 234 238 241 243 246 251
196 122 183 198 230 332 272 209 167 145 225 243 169 251 193 224 275 194 275 13 353 291 265 262 266 242 227 218 214 214 217 222 225 228 231 234 235 234 235 239 242 243 246 250
179 223 276 264 358 4 209 198 225 143 94 207 156 258 43 223 156 167 136 71 31 357 301 257 255 248 234 216 211 210 212 216 222 228 231 234 235 234 237 240 242 243 244 248
168 164 185 225 233 132 188 206 198 160 143 236 228 229 73 125 245 313 66 53 357 341 358 327 272 254 248 233 223 217 217 220 224 228 231 235 238 239 240 242 241 241 242 245
162 213 205 230 211 202 194 172 184 206 234 203 250 241 237 269 256 3 323 321 339 344 321 309 305 288 264 251 244 236 231 229 230 233 234 238 246 246 243 241 238 238 239 242
187 244 185 236 233 241 234 218 219 208 227 247 266 275 272 311 306 333 321 352 5 9 355 331 319 311 302 287 268 257 251 247 240 237 238 241 248 247 243 239 235 236 237 238
197 219 211 238 236 234 238 222 221 189 211 212 238 251 285 274 331 23 15 20 13 350 343 340 335 321 308 297 294 290 280 275 259 246 243 244 248 247 243 238 234 235 236 236
282 320 259 246 162 228 223 213 219 223 236 243 259 283 356 14 8 58 28 19 7 354 346 341 335 328 319 299 278 273 273 280 274 257 249 247 248 246 241 236 234 235 235 234
218 219 247 254 235 322 306 53 81 170 101 26 350 355 345 338 269 76 20 20 12 2 356 348 344 338 328 324 304 281 266 263 265 263 255 253 252 247 239 235 233 233 232 229
225 221 223 240 249 231 51 346 320 209 142 25 23 17 2 0 83 354 353 3 4 7 5 3 355 351 340 332 322 304 286 270 261 257 257 258 252 245 240 237 233 232 229 227
357 322 242 225 235 205 336 309 314 201 78 49 45 23 16 32 330 311 348 353 354 354 356 359 0 359 356 347 340 332 314 293 273 260 256 256 249 242 240 236 232 230 225 225
234 315 312 334 317 209 342 30 49 117 139 101 3 347 331 325 331 333 337 339 342 344 346 348 352 355 356 354 347 346 339 320 296 282 269 255 244 236 235 231 227 224 221 223
288 84 310 31 11 45 67 115 118 118 144 330 330 329 331 327 329 326 325 327 330 331 332 334 340 341 349 353 354 348 344 337 314 297 298 273 245 237 233 226 222 218 219 222
208 172 168 36 140 154 126 110 92 43 15 325 323 320 323 320 324 322 322 322 325 326 326 326 329 329 335 343 349 348 341 340 331 307 296 282 256 236 227 224 221 219 220 223
205 150 198 247 85 106 158 174 137 7 322 315 312 315 320 317 314 316 318 322 322 323 322 324 325 326 327 329 335 341 338 335 333 329 301 288 267 242 232 228 225 224 227 231
42 212 174 229 34 347 77 207 271 308 310 311 316 316 318 317 310 308 312 315 318 317 317 319 325 325 325 325 328 329 332 330 324 335 326 289 266 261 249 239 235 231 232 235